Location: Deneb Observatory
(47.2267°N, 100.4953°W)
Time: 03:37:23
(UTC-05:00)

Iridium 66 - Visible Passes

Search period start: 23 October 2014 00:00
Search period end: 02 November 2014 00:00
Orbit: 776 x 779 km, 86.4° (Epoch: 22 October)

Date Brightness Start Highest point End Pass type
(mag) Time Alt. Az. Time Alt. Az. Time Alt. Az.
23 Oct 9.0 03:42:56 10° NNE 03:43:14 11° NNE 03:43:14 11° NNE visible
23 Oct 8.0 05:22:30 10° N 05:23:38 17° N 05:23:38 17° N visible
24 Oct 8.5 04:48:56 10° N 04:49:31 13° N 04:49:31 13° N visible
28 Oct 9.0 19:00:48 10° W 19:02:20 11° WNW 19:03:52 10° NW visible
